Measurements were made at the meteorological tower in Jülich (50.90 N / 6.40 E) at an altitude of 100 m,
Responsible PI: Dr. Marc von Hobe; Forschungszentrum Jülich GmbH; IEK-7; email: m.von.hobe@fz-juelich.de,
NaN or negative numbers are fill values (i.e. no valid measurements were made at that time),
Uncertainties are given as the 1-sigma standard deviation over each 10 minute intervals. In each interval ~600 individual measurements are carried out so that the standard error of the mean is approximately sigma/sqrt(600).,
time_utc,CO2_ppm,stdev_CO2_ppm,CH4_ppm,stdev_CH4_ppm,H2O_ppm,stdev_H2O_ppm
"2014-05-01 00:05:00 000",420.009,2.85608,2.08484,0.0119669,10434.5,207.048
"2014-05-01 00:15:00 000",421.672,1.91315,2.08178,0.00607828,10401.8,198.302
"2014-05-01 00:25:00 000",421.478,4.31402,2.07898,0.00839485,10330.5,193.181
"2014-05-01 00:35:00 000",413.449,1.98821,2.06541,0.00974217,10264.3,189.423
"2014-05-01 00:45:00 000",413.300,0.885538,2.06631,0.00688382,10223.0,177.786
"2014-05-01 00:55:00 000",410.322,2.19776,2.05602,0.0121899,10185.6,171.859
"2014-05-01 01:05:00 000",406.447,2.04543,2.03453,0.0104532,10187.3,184.005
"2014-05-01 01:15:00 000",408.930,1.88418,2.04606,0.00829237,10201.2,173.069
"2014-05-01 01:25:00 000",410.309,0.626853,2.04530,0.00681282,10195.2,165.712
"2014-05-01 01:35:00 000",410.621,0.795656,2.04103,0.00735433,10141.3,162.754
"2014-05-01 01:45:00 000",411.237,0.913331,2.03853,0.00538013,10134.7,156.543
"2014-05-01 01:55:00 000",412.882,0.701429,2.04471,0.00618867,10065.4,163.360
"2014-05-01 02:05:00 000",414.391,0.613248,2.05164,0.00556904,9970.66,152.148
"2014-05-01 02:15:00 000",415.290,0.960997,2.06308,0.00724895,9934.85,150.940
"2014-05-01 02:25:00 000",416.072,0.601204,2.04764,0.0131149,9992.56,147.548
"2014-05-01 02:35:00 000",417.299,0.896905,2.04109,0.00762737,9944.23,153.772
"2014-05-01 02:45:00 000",418.421,0.591809,2.03338,0.0116845,9889.79,145.021
"2014-05-01 02:55:00 000",419.496,0.833651,2.02509,0.00896607,9838.12,131.035
"2014-05-01 03:05:00 000",419.150,1.20936,2.02862,0.00568581,9714.38,129.089
"2014-05-01 03:15:00 000",417.915,1.02445,2.02987,0.00532553,9681.58,129.638
"2014-05-01 03:25:00 000",415.064,1.74339,2.01452,0.00774118,9689.47,125.844
"2014-05-01 03:35:00 000",414.813,1.25897,2.02544,0.0101096,9661.84,115.152
"2014-05-01 03:45:00 000",415.157,1.18820,2.04340,0.00428014,9632.79,108.059
"2014-05-01 03:55:00 000",414.484,1.08879,2.03949,0.00393575,9600.83,108.213
"2014-05-01 04:05:00 000",414.608,0.872576,2.04427,0.00386868,9564.87,117.571
"2014-05-01 04:15:00 000",415.192,0.674331,2.04451,0.00321022,9468.23,105.363
"2014-05-01 04:25:00 000",416.269,0.891777,2.05042,0.00475783,9421.75,107.401
"2014-05-01 04:35:00 000",418.306,1.67362,2.04765,0.00703730,9337.27,94.1868
"2014-05-01 04:45:00 000",416.427,1.50216,2.03900,0.00488553,9372.81,97.2535
"2014-05-01 04:55:00 000",414.385,2.11570,2.03702,0.00602086,9542.07,143.815
"2014-05-01 05:05:00 000",415.893,1.29256,2.04405,0.00435698,9608.75,113.644
"2014-05-01 05:15:00 000",416.978,1.33298,2.05323,0.00469211,9826.83,97.9467
"2014-05-01 05:25:00 000",417.089,2.02946,2.05181,0.00642854,9992.56,96.9311
"2014-05-01 05:35:00 000",417.308,1.68442,2.04891,0.00573875,10118.5,101.494
"2014-05-01 05:45:00 000",418.317,1.77256,2.04518,0.00730091,10278.9,92.1460
"2014-05-01 05:55:00 000",414.418,1.25964,2.03214,0.00474833,10210.3,94.2802
"2014-05-01 06:05:00 000",414.847,1.76363,2.04192,0.00734397,10231.1,114.984
"2014-05-01 06:15:00 000",414.313,1.29935,2.04170,0.00768928,10240.8,165.991
"2014-05-01 06:25:00 000",413.337,1.60228,2.04169,0.0109596,10530.6,163.891
"2014-05-01 06:35:00 000",411.306,1.68534,2.04201,0.0129253,10596.8,169.497
"2014-05-01 06:45:00 000",409.774,1.28338,2.02260,0.0122492,10123.5,227.329
"2014-05-01 06:55:00 000",410.558,0.933836,2.03533,0.00874108,10413.0,188.226
"2014-05-01 07:05:00 000",408.363,0.865682,2.03407,0.00790181,10320.1,236.299
"2014-05-01 07:15:00 000",405.792,1.03761,2.02170,0.00712744,9746.43,182.268
"2014-05-01 07:25:00 000",403.600,1.47246,2.01861,0.00736824,9798.28,131.034
"2014-05-01 07:35:00 000",401.260,1.06976,1.99658,0.00815414,9842.10,126.194
"2014-05-01 07:45:00 000",402.472,0.979732,1.99263,0.00349426,9509.09,74.8069
"2014-05-01 07:55:00 000",400.908,0.818544,1.99634,0.00566257,9613.88,107.926
"2014-05-01 08:05:00 000",400.703,0.911511,1.99575,0.00416019,9647.07,101.633
"2014-05-01 08:15:00 000",400.167,0.801791,1.99460,0.00512530,9640.76,135.232
"2014-05-01 08:25:00 000",399.924,0.950289,1.98550,0.00430207,9480.31,161.499
"2014-05-01 08:35:00 000",399.761,0.887651,1.98445,0.00304110,9646.46,135.907
"2014-05-01 08:45:00 000",399.654,0.812119,1.98637,0.00293522,9554.91,124.519
"2014-05-01 08:55:00 000",398.897,0.870602,1.98627,0.00466663,9413.66,141.544
"2014-05-01 09:05:00 000",398.904,0.991406,1.98949,0.00442506,9712.38,159.428
"2014-05-01 09:15:00 000",397.679,0.895379,1.98412,0.00441017,9304.64,161.963
"2014-05-01 09:25:00 000",397.265,0.889030,1.98790,0.00330964,9398.71,297.246
"2014-05-01 09:35:00 000",396.039,1.03671,1.98631,0.00374700,9461.70,215.511
"2014-05-01 09:45:00 000",396.623,1.00570,1.98300,0.00346275,9604.36,421.132
"2014-05-01 09:55:00 000",397.101,0.785182,1.98464,0.00405767,9013.51,137.662
"2014-05-01 10:05:00 000",396.152,0.837323,1.98251,0.00374250,9154.34,138.847
"2014-05-01 10:15:00 000",395.428,0.847767,1.98158,0.00326018,9405.98,171.532
"2014-05-01 10:25:00 000",395.019,0.857570,1.98412,0.00345175,9501.33,144.536
"2014-05-01 10:35:00 000",395.560,0.740459,1.98445,0.00311651,9639.32,107.630
"2014-05-01 10:45:00 000",395.014,1.22816,1.98549,0.00352171,9364.81,131.611
"2014-05-01 10:55:00 000",393.716,1.07569,1.98510,0.00350369,9710.24,178.112
"2014-05-01 11:05:00 000",394.387,1.23643,1.98339,0.00349765,9769.91,125.793
"2014-05-01 11:15:00 000",394.221,1.35617,1.98446,0.00337201,9640.95,95.2089
"2014-05-01 11:25:00 000",394.547,0.996211,1.98392,0.00330129,9525.17,143.663
"2014-05-01 11:35:00 000",394.924,1.19502,1.98363,0.00375960,9439.29,222.557
"2014-05-01 11:45:00 000",394.933,0.821006,1.97995,0.00383319,9377.71,130.170
"2014-05-01 11:55:00 000",394.675,0.916943,1.98054,0.00324237,9109.63,268.240
"2014-05-01 12:05:00 000",394.593,0.897592,1.97708,0.00327134,9053.49,156.057
"2014-05-01 12:15:00 000",394.300,1.09555,1.97413,0.00322005,9212.36,103.509
"2014-05-01 12:25:00 000",394.695,0.650908,1.97559,0.00350060,9342.20,174.075
"2014-05-01 12:35:00 000",394.010,0.727520,1.97780,0.00355479,9442.10,267.693
"2014-05-01 12:45:00 000",395.011,0.609120,1.97096,0.00517528,8799.04,135.348
"2014-05-01 12:55:00 000",394.230,0.944250,1.97219,0.00441010,8841.49,108.789
"2014-05-01 13:05:00 000",393.144,0.673000,1.97282,0.00334817,8785.17,172.506
"2014-05-01 13:15:00 000",393.282,0.883980,1.96893,0.00317168,8806.84,99.7555
"2014-05-01 13:25:00 000",392.793,0.781749,1.96621,0.00344938,9146.14,163.763
"2014-05-01 13:35:00 000",392.114,1.14070,1.96582,0.00317211,9202.15,154.708
"2014-05-01 13:45:00 000",392.390,0.952695,1.96502,0.00320711,8854.62,98.7766
"2014-05-01 13:55:00 000",392.478,0.963165,1.96094,0.00352162,8735.99,130.179
"2014-05-01 14:05:00 000",391.515,0.903572,1.95715,0.00342517,8867.47,191.092
"2014-05-01 14:15:00 000",391.166,0.951156,1.95517,0.00334212,8919.10,115.656
"2014-05-01 14:25:00 000",392.039,1.01237,1.95527,0.00296017,8777.52,75.9744
"2014-05-01 14:35:00 000",392.787,0.892262,1.95450,0.00296687,8675.92,75.3788
"2014-05-01 14:45:00 000",391.141,0.774185,1.95221,0.00325466,8844.50,130.057
"2014-05-01 14:55:00 000",391.933,0.819947,1.95182,0.00316234,8851.84,91.2640
"2014-05-01 15:05:00 000",391.596,0.649046,1.95302,0.00343631,8770.88,61.1385
"2014-05-01 15:15:00 000",391.626,0.635980,1.95356,0.00340164,8902.93,67.9865
"2014-05-01 15:25:00 000",391.643,0.735171,1.95366,0.00311962,9095.70,103.986
"2014-05-01 15:35:00 000",391.399,0.801690,1.95107,0.00357487,9338.95,101.829
"2014-05-01 15:45:00 000",392.997,1.22225,1.94848,0.00326857,9344.25,92.3717
"2014-05-01 15:55:00 000",393.021,0.786954,1.94934,0.00316532,9484.52,99.1827
"2014-05-01 16:05:00 000",392.272,0.871378,1.94931,0.00358272,9466.10,128.803
"2014-05-01 16:15:00 000",393.000,0.855408,1.94994,0.00309160,9188.84,73.6759
"2014-05-01 16:25:00 000",393.046,0.651109,1.95011,0.00373278,9006.69,139.472
"2014-05-01 16:35:00 000",393.540,0.679569,1.94617,0.00329606,8856.94,73.3637
"2014-05-01 16:45:00 000",394.289,1.01534,1.95526,0.0112510,8822.48,192.430
"2014-05-01 16:55:00 000",394.781,1.22334,1.96559,0.00673709,8999.71,234.786
"2014-05-01 17:05:00 000",393.241,0.653729,1.95286,0.00451932,9363.65,112.463
"2014-05-01 17:15:00 000",393.239,0.683702,1.94990,0.00329689,9769.30,239.462
"2014-05-01 17:25:00 000",392.284,0.945618,1.94992,0.00402089,10268.5,119.827
"2014-05-01 17:35:00 000",391.059,0.601817,1.94294,0.00347557,10856.2,198.727
"2014-05-01 17:45:00 000",391.113,0.910671,1.93865,0.00415010,11047.7,82.3077
"2014-05-01 17:55:00 000",391.005,0.953133,1.95300,0.00922692,11158.3,134.297
"2014-05-01 18:05:00 000",391.152,0.859399,1.94241,0.0116814,11355.1,183.280
"2014-05-01 18:15:00 000",389.740,0.967504,1.92623,0.00565607,11436.7,207.063
"2014-05-01 18:25:00 000",391.563,1.00930,1.93894,0.0125074,11501.9,184.488
"2014-05-01 18:35:00 000",391.911,0.678960,1.93098,0.00651565,11412.4,172.612
"2014-05-01 18:45:00 000",392.082,0.681103,1.92425,0.00399522,11392.7,148.200
"2014-05-01 18:55:00 000",392.745,0.627833,1.92290,0.00385264,11410.4,133.164
"2014-05-01 19:05:00 000",393.391,0.705533,1.92235,0.00363928,11439.6,126.513
"2014-05-01 19:15:00 000",393.688,0.665602,1.92069,0.00350657,11476.6,128.356
"2014-05-01 19:25:00 000",391.277,1.56770,1.91384,0.00564872,11574.6,183.201
"2014-05-01 19:35:00 000",390.874,0.693997,1.91062,0.00363498,11669.4,137.450
"2014-05-01 19:45:00 000",392.381,0.651745,1.91535,0.00337863,11434.0,120.803
"2014-05-01 19:55:00 000",393.238,0.552606,1.91708,0.00336630,11418.1,130.101
"2014-05-01 20:05:00 000",394.002,0.564645,1.91910,0.00356899,11424.4,117.032
"2014-05-01 20:15:00 000",394.543,0.678427,1.91919,0.00320813,11431.1,119.076
"2014-05-01 20:25:00 000",393.658,0.635255,1.91926,0.00319832,11562.6,106.385
"2014-05-01 20:35:00 000",392.950,0.575183,1.92002,0.00364435,11581.3,111.624
"2014-05-01 20:45:00 000",393.234,0.578456,1.92337,0.00451179,11542.5,113.927
"2014-05-01 20:55:00 000",393.656,0.553652,1.92985,0.00393616,11521.5,111.873
"2014-05-01 21:05:00 000",394.204,0.647898,1.93236,0.00360188,11477.2,116.428
"2014-05-01 21:15:00 000",394.787,0.556528,1.93501,0.00347625,11368.9,114.438
"2014-05-01 21:25:00 000",395.599,0.718159,1.93505,0.00357803,11223.3,138.569
"2014-05-01 21:35:00 000",397.414,1.28980,1.94272,0.00414229,11070.0,122.648
"2014-05-01 21:45:00 000",399.371,0.855346,1.94611,0.00509011,11131.8,164.014
"2014-05-01 21:55:00 000",399.505,1.25692,1.95086,0.00480183,11127.3,248.529
"2014-05-01 22:05:00 000",399.226,0.694490,1.95063,0.00455519,10829.1,174.121
"2014-05-01 22:15:00 000",399.747,0.706890,1.95360,0.00529551,10651.6,163.450
"2014-05-01 22:25:00 000",399.950,1.11047,1.95968,0.00503186,10549.4,173.472
"2014-05-01 22:35:00 000",401.606,0.746548,1.95863,0.00492662,10302.4,234.821
"2014-05-01 22:45:00 000",402.639,0.685758,1.96114,0.00487005,10164.5,182.324
"2014-05-01 22:55:00 000",402.777,0.612562,1.96264,0.00507860,10161.4,186.035
"2014-05-01 23:05:00 000",403.003,1.10457,1.96568,0.00563778,10150.5,179.298
"2014-05-01 23:15:00 000",405.352,1.31636,1.96435,0.00538743,10065.8,175.854
"2014-05-01 23:25:00 000",404.814,0.680110,1.96621,0.00476435,10038.5,171.064
"2014-05-01 23:35:00 000",403.830,0.712725,1.96302,0.00479862,10086.4,148.817
"2014-05-01 23:45:00 000",403.703,0.673430,1.96910,0.00651100,10141.3,135.190
"2014-05-01 23:55:00 000",405.878,1.04844,2.01367,0.0145815,10170.3,125.945
"2014-05-02 00:05:00 000",407.971,1.51652,2.01784,0.0129314,10218.7,111.373
"2014-05-02 00:15:00 000",408.937,2.33793,2.00675,0.0170025,10267.9,115.785
"2014-05-02 00:25:00 000",405.832,3.92345,2.00101,0.0297803,10287.5,104.479
"2014-05-02 00:35:00 000",403.721,1.32457,1.97666,0.0141926,10278.1,113.022
"2014-05-02 00:45:00 000",401.892,0.609155,1.96307,0.00423294,10373.9,120.193
"2014-05-02 00:55:00 000",401.495,1.12232,1.96234,0.00995126,10420.4,136.383
"2014-05-02 01:05:00 000",401.243,1.27392,1.97067,0.0131887,10383.8,148.456
"2014-05-02 01:15:00 000",405.595,3.47843,1.97980,0.00576159,10291.4,166.738
"2014-05-02 01:25:00 000",411.098,1.62602,1.98568,0.00557485,10220.7,186.336
"2014-05-02 01:35:00 000",411.984,2.03001,1.98977,0.00596187,10207.3,194.635
"2014-05-02 01:45:00 000",414.556,1.60510,1.99922,0.00732975,10217.6,179.810
"2014-05-02 01:55:00 000",416.433,0.948629,2.01528,0.00792483,10155.2,182.467
"2014-05-02 02:05:00 000",420.011,2.16147,2.03163,0.00689281,10179.7,167.469
"2014-05-02 02:15:00 000",421.988,2.06928,2.04724,0.00583943,10222.8,158.259
"2014-05-02 02:25:00 000",419.354,1.62468,2.04333,0.00536293,10309.2,150.095
"2014-05-02 02:35:00 000",416.454,1.80226,2.02779,0.00888165,10307.7,140.840
"2014-05-02 02:45:00 000",415.854,1.39976,2.02006,0.00546897,10311.6,134.429
"2014-05-02 02:55:00 000",418.497,1.78134,2.02969,0.00571679,10333.2,133.873
"2014-05-02 03:05:00 000",419.667,1.50663,2.02719,0.00619621,10348.0,126.806
"2014-05-02 03:15:00 000",421.523,0.818639,2.03001,0.00407384,10379.0,131.192
"2014-05-02 03:25:00 000",421.432,0.858642,2.02571,0.00514367,10355.5,119.699
"2014-05-02 03:35:00 000",422.641,0.625070,2.02622,0.00349408,10379.1,109.503
"2014-05-02 03:45:00 000",422.874,0.664412,2.02375,0.00323363,10413.5,110.067
"2014-05-02 03:55:00 000",423.836,0.791881,2.02634,0.00371598,10396.4,109.565
"2014-05-02 04:05:00 000",425.685,0.794352,2.03676,0.00569198,10423.9,117.687
"2014-05-02 04:15:00 000",426.648,0.644890,2.05237,0.00601773,10423.4,99.8673
"2014-05-02 04:25:00 000",426.552,0.637267,2.06973,0.00638499,10433.2,110.981
"2014-05-02 04:35:00 000",425.423,0.721241,2.08997,0.00606643,10434.1,105.977
"2014-05-02 04:45:00 000",425.476,0.935536,2.10537,0.00436147,10411.7,108.306
"2014-05-02 04:55:00 000",427.454,0.647803,2.10760,0.00474229,10405.3,99.8504
"2014-05-02 05:05:00 000",429.551,0.887480,2.10578,0.00815088,10401.8,102.493
"2014-05-02 05:15:00 000",428.962,1.36005,2.09214,0.00421511,10386.2,99.3244
"2014-05-02 05:25:00 000",424.835,0.809064,2.08828,0.00571547,10320.7,103.568
"2014-05-02 05:35:00 000",423.724,0.882809,2.10013,0.00528471,10299.9,98.2766
"2014-05-02 05:45:00 000",424.161,0.674657,2.10770,0.00328475,10257.8,98.5647
"2014-05-02 05:55:00 000",424.768,0.611094,2.11321,0.00391958,10240.6,100.332
"2014-05-02 06:05:00 000",425.445,0.586192,2.11095,0.00426351,10224.1,94.5293
"2014-05-02 06:15:00 000",423.595,1.40001,2.10261,0.00450389,10249.0,93.4853
"2014-05-02 06:25:00 000",417.089,2.06670,2.08394,0.0116528,10411.3,225.347
"2014-05-02 06:35:00 000",412.061,1.07894,2.06676,0.00365758,10957.2,110.378
"2014-05-02 06:45:00 000",410.514,0.795972,2.05678,0.00607534,11085.7,118.571
"2014-05-02 06:55:00 000",408.757,0.770688,2.05209,0.00434997,11177.6,100.144
"2014-05-02 07:05:00 000",406.304,0.708746,2.05151,0.00362374,11067.5,96.2398
"2014-05-02 07:15:00 000",408.429,1.26935,2.06645,0.00765074,10982.3,133.453
"2014-05-02 07:25:00 000",407.500,1.07000,2.04941,0.00855925,10917.4,103.947
"2014-05-02 07:35:00 000",406.587,0.951226,2.04252,0.00642164,10965.9,101.315
"2014-05-02 07:45:00 000",407.497,0.792092,2.04718,0.00508803,10924.4,102.120
"2014-05-02 07:55:00 000",408.969,0.734834,2.05494,0.00491856,10900.4,106.166
"2014-05-02 08:05:00 000",406.675,1.23738,2.03686,0.00981888,11508.3,339.416
"2014-05-02 08:15:00 000",403.387,1.12144,2.01861,0.00630946,11987.8,188.693
"2014-05-02 08:25:00 000",401.086,0.787971,2.01003,0.00531690,12185.8,126.142
"2014-05-02 08:35:00 000",400.066,0.951081,2.00323,0.00400884,11948.5,120.306
"2014-05-02 08:45:00 000",399.901,1.00302,2.00312,0.00386225,11807.4,161.837
"2014-05-02 08:55:00 000",399.512,0.826776,2.00705,0.00406707,11599.3,287.446
"2014-05-02 09:05:00 000",399.715,0.692850,2.00374,0.00526511,11184.1,125.705
"2014-05-02 09:15:00 000",399.057,0.771602,1.99355,0.00420456,11170.8,136.694
"2014-05-02 09:25:00 000",398.925,0.906655,2.00308,0.00595482,11197.9,147.402
"2014-05-02 09:35:00 000",398.210,0.850331,1.99319,0.00724346,11057.9,309.589
"2014-05-02 09:45:00 000",398.451,0.860699,1.97649,0.00426110,10587.4,166.795
"2014-05-02 09:55:00 000",397.780,0.771312,1.98489,0.00764941,10497.2,156.304
"2014-05-02 10:05:00 000",398.609,1.13037,1.99234,0.00537238,10343.9,293.831
"2014-05-02 10:15:00 000",398.023,0.906153,1.98843,0.00590446,10224.9,161.307
"2014-05-02 10:25:00 000",399.120,1.64789,1.99263,0.00949676,9852.93,315.572
"2014-05-02 10:35:00 000",399.779,0.885626,2.00187,0.00667814,9715.93,191.984
"2014-05-02 10:45:00 000",398.099,0.884994,1.99008,0.00434970,9693.57,192.600
"2014-05-02 10:55:00 000",397.589,0.652415,1.99035,0.00501241,9601.13,173.935
"2014-05-02 11:05:00 000",397.981,0.625193,1.99391,0.00434513,9574.90,160.909
"2014-05-02 11:15:00 000",398.049,0.777584,1.99354,0.00664801,9557.12,196.904
"2014-05-02 11:25:00 000",398.028,0.744934,1.97141,0.00660474,9394.73,171.727
"2014-05-02 11:35:00 000",397.484,0.736867,1.97309,0.00934971,9314.15,190.940
"2014-05-02 11:45:00 000",397.620,0.606524,1.97878,0.00447525,9217.50,178.311
"2014-05-02 11:55:00 000",397.628,0.576396,1.97120,0.00498088,9112.16,162.088
"2014-05-02 12:05:00 000",397.538,0.600710,1.96368,0.00395136,9085.30,155.813
"2014-05-02 12:15:00 000",397.495,0.711138,1.96045,0.00404677,9143.41,144.803
"2014-05-02 12:25:00 000",398.640,0.629438,1.96092,0.00378848,9055.34,150.261
"2014-05-02 12:35:00 000",399.575,0.778920,1.96301,0.00367782,9056.86,150.181
"2014-05-02 12:45:00 000",401.025,0.733781,1.96165,0.00347684,9224.06,148.816
"2014-05-02 12:55:00 000",400.724,0.836774,1.96229,0.00368955,9178.40,144.648
"2014-05-02 13:05:00 000",401.639,0.815163,1.96247,0.00350784,8870.85,174.693
"2014-05-02 13:15:00 000",401.706,0.591802,1.96246,0.00456170,8687.13,125.562
"2014-05-02 13:25:00 000",402.419,0.709860,1.97423,0.00454832,8640.36,132.684
"2014-05-02 13:35:00 000",403.518,0.633675,1.97853,0.00362467,8622.21,120.764
"2014-05-02 13:45:00 000",403.998,0.563466,1.97751,0.00390780,8609.06,102.268
"2014-05-02 13:55:00 000",403.362,0.570133,1.97108,0.00360018,8665.87,105.283
"2014-05-02 14:05:00 000",403.709,0.580129,1.97220,0.00311532,8667.23,96.3253
"2014-05-02 14:15:00 000",404.415,0.772681,1.97423,0.00354401,8596.42,122.322
"2014-05-02 14:25:00 000",405.082,0.553974,1.97361,0.00294300,8474.56,107.335
"2014-05-02 14:35:00 000",404.273,0.655320,1.96981,0.00381438,8464.54,104.413
"2014-05-02 14:45:00 000",403.214,0.566055,1.96390,0.00329145,8510.33,108.589
"2014-05-02 14:55:00 000",403.023,0.588605,1.96106,0.00360327,8542.17,108.881
"2014-05-02 15:05:00 000",402.331,0.560363,1.95566,0.00311475,8573.06,102.764
"2014-05-02 15:15:00 000",402.034,0.537105,1.95517,0.00311329,8552.91,109.202
"2014-05-02 15:25:00 000",400.743,0.703238,1.94188,0.00929933,8482.60,118.846
"2014-05-02 15:35:00 000",400.740,0.619527,1.93442,0.00332432,8298.52,122.097
"2014-05-02 15:45:00 000",400.719,0.583184,1.93759,0.00315330,8202.85,110.885
"2014-05-02 15:55:00 000",399.808,0.538549,1.93532,0.00330105,8187.43,102.858
"2014-05-02 16:05:00 000",399.657,0.552586,1.93355,0.00300083,8169.74,109.731
"2014-05-02 16:15:00 000",399.316,0.597367,1.93432,0.00302849,8094.46,112.478
"2014-05-02 16:25:00 000",399.127,0.555978,1.93665,0.00338097,7960.49,113.399
"2014-05-02 16:35:00 000",399.377,0.549558,1.94087,0.00319745,7893.76,107.267
"2014-05-02 16:45:00 000",399.460,0.579693,1.94454,0.00317557,7871.42,109.171
"2014-05-02 16:55:00 000",399.342,0.656917,1.94489,0.00320330,7843.29,109.241
"2014-05-02 17:05:00 000",399.085,0.574056,1.94567,0.00319925,7749.56,118.029
"2014-05-02 17:15:00 000",399.071,0.554995,1.94347,0.00330136,7631.78,111.658
"2014-05-02 17:25:00 000",399.465,0.565926,1.94644,0.00351462,7543.46,111.136
"2014-05-02 17:35:00 000",399.891,0.613568,1.94982,0.00326960,7496.72,111.226
"2014-05-02 17:45:00 000",399.989,0.588045,1.95330,0.00328975,7475.83,111.842
"2014-05-02 17:55:00 000",400.266,0.590091,1.95141,0.00450719,7500.44,109.707
"2014-05-02 18:05:00 000",400.198,0.642819,1.94940,0.00328088,7471.56,104.535
"2014-05-02 18:15:00 000",400.384,0.580357,1.95563,0.00424281,7446.46,109.715
"2014-05-02 18:25:00 000",399.967,0.789123,1.95255,0.00574000,7383.74,116.927
"2014-05-02 18:35:00 000",398.982,0.615481,1.93932,0.00346130,7250.28,114.076
"2014-05-02 18:45:00 000",400.313,0.841322,1.93771,0.00336373,7212.50,110.581
"2014-05-02 18:55:00 000",403.511,1.38973,1.94204,0.00489179,7213.45,102.290
"2014-05-02 19:05:00 000",404.708,0.743591,1.94346,0.00315828,7256.35,108.046
"2014-05-02 19:15:00 000",403.800,1.34778,1.93926,0.00444111,7285.00,121.579
"2014-05-02 19:25:00 000",398.598,1.30946,1.91563,0.00859506,7217.43,124.440
"2014-05-02 19:35:00 000",397.584,0.609576,1.90471,0.00384938,7186.07,121.726
"2014-05-02 19:45:00 000",398.453,0.645352,1.91374,0.00370990,7244.90,134.779
"2014-05-02 19:55:00 000",399.234,0.634192,1.91169,0.00396445,7310.76,130.221
"2014-05-02 20:05:00 000",398.543,0.741622,1.89761,0.00519021,7281.15,135.579
"2014-05-02 20:15:00 000",398.733,0.622740,1.89633,0.00336824,7096.95,132.156
"2014-05-02 20:25:00 000",399.283,0.676599,1.89884,0.00330265,7035.98,140.422
"2014-05-02 20:35:00 000",400.270,0.753404,1.90409,0.00384578,6999.23,132.915
"2014-05-02 20:45:00 000",402.344,0.985718,1.91064,0.00458010,6973.65,126.775
"2014-05-02 20:55:00 000",404.475,0.750278,1.91956,0.00491432,7034.28,137.561
"2014-05-02 21:05:00 000",405.214,0.668668,1.92848,0.00442300,7040.76,129.980
"2014-05-02 21:15:00 000",405.339,0.729358,1.93303,0.00382769,7005.03,136.728
"2014-05-02 21:25:00 000",404.521,1.27778,1.93524,0.00358400,6986.86,135.552
"2014-05-02 21:35:00 000",403.168,1.09079,1.93464,0.00352752,6924.15,138.347
"2014-05-02 21:45:00 000",402.747,0.811163,1.93444,0.00353820,6868.71,136.702
"2014-05-02 21:55:00 000",401.431,1.00933,1.93440,0.00358984,6848.50,133.713
"2014-05-02 22:05:00 000",400.096,0.749560,1.93412,0.00386349,6801.46,139.696
"2014-05-02 22:15:00 000",399.163,0.766568,1.93311,0.00374925,6755.92,144.028
"2014-05-02 22:25:00 000",398.690,0.633293,1.92882,0.00383666,6697.96,139.341
"2014-05-02 22:35:00 000",398.228,0.730727,1.92661,0.00357014,6674.20,138.111
"2014-05-02 22:45:00 000",397.712,0.631498,1.92696,0.00372445,6644.92,147.449
"2014-05-02 22:55:00 000",398.188,0.643544,1.92636,0.00364799,6644.91,148.312
"2014-05-02 23:05:00 000",398.650,0.656274,1.92601,0.00409151,6612.65,148.724
"2014-05-02 23:15:00 000",398.480,0.611615,1.92520,0.00377343,6603.70,146.505
"2014-05-02 23:25:00 000",398.818,0.657362,1.92655,0.00370340,6612.79,158.665
"2014-05-02 23:35:00 000",399.767,0.797700,1.92969,0.00427789,6634.50,159.049
"2014-05-02 23:45:00 000",402.448,1.28650,1.93700,0.00551181,6665.56,167.077
"2014-05-02 23:55:00 000",405.469,0.812429,1.94840,0.00507522,6720.32,168.835
"2014-05-03 00:05:00 000",407.638,0.934779,1.95667,0.00525700,6752.29,167.222
"2014-05-03 00:15:00 000",409.832,1.40335,1.96000,0.00636504,6832.27,174.255
"2014-05-03 00:25:00 000",412.367,0.887807,1.96341,0.00529162,6915.20,184.348
"2014-05-03 00:35:00 000",413.230,0.668217,1.96626,0.00478011,6929.31,181.887
"2014-05-03 00:45:00 000",413.275,0.911751,1.97381,0.00533196,6947.39,181.962
"2014-05-03 00:55:00 000",411.030,1.52315,1.98814,0.00752264,6984.24,191.619
"2014-05-03 01:05:00 000",409.237,1.13537,1.99728,0.00552723,6959.80,197.609
"2014-05-03 01:15:00 000",406.893,0.846963,2.00830,0.00781996,6950.61,193.104
"2014-05-03 01:25:00 000",407.004,0.736147,2.01946,0.00623963,6871.43,183.285
"2014-05-03 01:35:00 000",407.241,0.921554,2.02502,0.00579349,6752.55,207.729
"2014-05-03 01:45:00 000",408.038,0.678087,2.02717,0.00484566,6684.94,197.049
"2014-05-03 01:55:00 000",409.271,0.690006,2.02293,0.00497676,6566.60,197.623
"2014-05-03 02:05:00 000",410.502,0.703941,2.01683,0.00515712,6471.71,184.158